Flag for South Africa Weather past 2 weeks in Stellenbosch, South Africa

Now
55 °F

Partly sunny.


Feels Like: 51 °F
Forecast: 44 / 57 °F
Wind: 18 mph from West

Location: Cape Town International Airport

Current Time: Sep 18, 2014 at 1:43:38 PM

Latest Report: Sep 18, 2014 at 1:00 PM


Visibility: N/A

Pressure: 30.01 "Hg

Humidity: 67%

Dew point: 45 °F

Location of StellenboschLocation

Historic Weather in Stellenbosch — Graph

°F

Stellenbosch temperature yesterday

Maximum temperature yesterday: 66 °F (at 3:00 PM)
Minimum temperature yesterday: 55 °F (at 11:00 PM)
Average temperature yesterday: 60 °F

Past Weeks' High & Low Weather Summary

 TemperatureHumidityPressure
High84 °F (Sep 4, 4:00 PM)100% (Sep 7, 8:00 AM)30.27 "Hg (Sep 7, 8:00 AM)
Low45 °F (Sep 13, 7:00 AM)29% (Sep 4, 4:00 PM)29.74 "Hg (Sep 18, 1:00 AM)
Average60 °F74%30.05 "Hg
* Reported Sep 3 12:00 Noon — Sep 18 12:00 Noon, Stellenbosch, Weather by CustomWeather, © 2014

Note: Actual official high and low records may vary slightly from our data, if they occured in-between our weather recording intervals... More about our weather records

Advertising

Stellenbosch weather history for previous 24 hours

 ConditionsComfort  
Time TempWeatherWind HumidityBarometerVisibility
12:00 PM
Sep 18
57 °FBroken clouds.20 mph67%29.98 "HgN/A
11:00 AM57 °FPartly sunny.25 mph63%29.98 "HgN/A
10:00 AM55 °FPartly sunny.18 mph72%29.95 "HgN/A
9:00 AM57 °FLight rain. Partly sunny.13 mph67%29.92 "HgN/A
8:00 AM54 °FScattered clouds.9 mph77%29.86 "HgN/A
7:00 AM55 °FPartly sunny.16 mph72%29.83 "HgN/A
6:00 AM55 °FLight rain. Partly sunny.24 mph67%29.77 "HgN/A
5:00 AM55 °FLight rain. Passing clouds.18 mph82%29.74 "HgN/A
4:00 AM54 °FPassing clouds.12 mph88%29.74 "HgN/A
3:00 AM54 °FPassing clouds.14 mph82%29.74 "HgN/A
2:00 AM55 °FPassing clouds.17 mph77%29.74 "HgN/A
1:00 AM55 °FPassing clouds.15 mph88%29.74 "HgN/A
12:00 AM54 °FPassing clouds.14 mph77%29.77 "HgN/A
11:00 PM
Sep 17
55 °FPassing clouds.12 mph82%29.77 "HgN/A
10:00 PM57 °FPassing clouds.13 mph82%29.80 "HgN/A
9:00 PM59 °FLight rain. Partly cloudy.15 mph88%29.80 "HgN/A
8:00 PM59 °FPassing clouds.13 mph88%29.80 "HgN/A
7:00 PM59 °FPassing clouds.16 mph82%29.80 "HgN/A
6:00 PM59 °FPassing clouds.17 mph82%29.77 "HgN/A
5:00 PM59 °FLight rain. Partly sunny.16 mph88%29.77 "Hg5 mi
4:00 PM63 °FBroken clouds.22 mph73%29.77 "HgN/A
3:00 PM66 °FPartly sunny.22 mph73%29.77 "HgN/A
2:00 PM63 °FPartly sunny.21 mph77%29.80 "HgN/A
1:00 PM64 °FPartly sunny.17 mph73%29.83 "HgN/A
Weather by CustomWeather, © 2014

See weather overviewHow to use our weather pages